Location: Unspecified
(41.1637°N, 24.2901°E)
Time: 15:58:47
(UTC+02:00)

ISS - Visible Passes

Search period start: 22 April 2019 00:00
Search period end: 02 May 2019 00:00
Orbit: 408 x 410 km, 51.6° (Epoch: 22 April)

Date Brightness Start Highest point End Pass type
(mag) Time Alt. Az. Time Alt. Az. Time Alt. Az.
27 Apr -1.3 04:41:35 10° S 04:43:49 17° SE 04:46:05 10° E visible
29 Apr -2.9 04:35:17 10° SSW 04:38:26 43° SE 04:41:36 10° ENE visible
30 Apr -2.0 03:46:30 19° SSE 03:47:41 23° SE 03:50:22 10° E visible
01 May -1.0 02:57:39 12° ESE 02:57:39 12° ESE 02:58:32 10° ESE visible
01 May -3.7 04:30:24 14° WSW 04:33:09 72° NW 04:36:28 10° NE visible
